CZ-2F DEB (53359 NORAD) Tracking and Keplerian Element Data

This shows tracking and keplerian element data for the satellite.

Feedback or suggestion? Click here.




ElementValue
Catalog53359
NameCZ-2F DEB
Epoch Orbit384
Epoch Day241.83515913
Epoch Year2022
RAAN40.689
Inclination50.3069
Eccentricity0.0227908
Argument of Perigee267.1274
Mean Anonmoly90.3585
Mean Motion15.25813835
Decay Rate0.00099327
L11 53359U 22093C 22241.83515913 .00099327 00000+0 17548-2 0 9993
L22 53359 50.3069 40.6890 0227908 267.1274 90.3585 15.25813835 3840

Live tracking and technical data element details for CZ-2F DEB (NORAD 53359). CZ-2F DEB can be tracked NOW for your location showing map with azimuth and elevation plus other details from your city location.

Track the satellite on the map from your city or location and see movement details for azimuth, elevation, latitude, longitude, range, height, and movement on the map or in text.







IsCatalogInMostPopularTable: catalog: 53359, numindb: 2
Update: records affected: 1



GetName: 53359 CZ-2F DEB

Hit Count: updated at: Wed, 28 Sep 2022 21:27:36 GMT